Location: Il Ritiro
(43.4167°N, 13.1333°E)
Time: 17:15:06
(UTC+00:00)

Meteor 2-6 Rocket - Pass Details

Date: 05 July 2020
Orbit: 804 x 916 km, 81.3° (Epoch: 10 August)

Event Time Altitude Azimuth Distance (km) Brightness Sun altitude
Rises 23:28:37 0° 352° (N) 3,382 8.7 -23.8°
Reaches altitude 10° 23:31:05 10° 355° (N) 2,430 7.6 -23.8°
Maximum altitude 23:36:32 67° 78° (ENE) 878 4.2 -23.7°
Enters shadow 23:37:52 49° 139° (SE) 1,036 4.3 -23.7°
